Wind_Speed
10 10 10 10 10 10 10 10 10 10 12 14 16 16 16 17 18 18 19 20 20 20 21 21 22 23 24 24 25 25 26 27 27 27 28 28 29 30 31 32 33 33 34 35
12 12 12 12 12 12 12 12 12 12 12 14 15 15 16 17 18 18 19 20 21 22 22 23 23 24 24 25 26 26 27 27 27 27 27 28 29 29 30 31 33 34 35 35
14 14 14 13 13 14 14 14 14 13 14 14 15 16 16 17 18 19 20 21 22 23 24 24 25 25 25 26 27 27 27 27 28 28 28 29 30 30 31 32 32 33 34 35
16 16 15 15 16 16 17 17 17 16 17 16 17 17 18 18 19 20 21 22 23 23 24 24 25 26 27 27 28 28 28 28 29 29 30 30 30 31 32 33 34 34 35 35
19 19 18 18 18 18 19 19 19 18 18 19 19 19 19 20 21 21 22 23 24 24 25 25 26 26 27 27 28 29 29 30 30 31 31 31 31 32 33 34 35 35 36 36
23 23 23 22 21 21 22 22 21 21 21 22 22 22 22 23 23 23 24 24 25 25 25 26 26 27 27 28 28 29 30 31 31 32 32 33 33 34 35 35 35 36 36 36
27 27 27 26 25 25 25 25 25 25 25 25 25 25 25 26 26 27 27 27 28 28 28 28 29 29 30 30 31 31 31 31 32 32 33 34 34 35 36 36 36 36 37 37
31 31 31 30 29 28 28 28 28 29 29 29 29 29 29 29 29 30 30 31 31 31 31 31 32 32 32 32 33 33 33 33 33 34 34 35 36 37 37 37 37 37 38 38
34 33 34 34 33 32 32 32 32 33 33 33 33 32 32 33 33 33 33 33 33 33 34 34 34 34 34 34 35 35 35 35 35 35 36 36 37 37 38 37 38 38 39 38
36 36 36 36 36 36 36 36 36 36 36 36 36 36 35 35 35 36 36 36 36 36 36 36 36 36 37 37 37 37 37 37 37 37 38 38 38 38 38 38 38 38 38 38
38 37 37 36 37 38 38 38 39 38 38 38 38 38 38 38 38 38 38 39 39 39 39 38 38 38 38 38 38 38 38 38 38 39 39 38 38 38 39 39 39 38 38 38
39 38 39 38 39 40 40 40 41 41 41 41 41 41 41 40 40 40 40 40 40 40 40 40 39 39 39 39 38 38 38 38 38 38 38 38 38 38 38 38 38 37 38 38
41 41 42 42 42 42 43 42 42 43 43 42 43 43 42 42 41 41 41 41 41 41 41 40 40 39 39 39 38 38 38 38 38 37 37 37 37 37 37 37 37 37 38 39
43 44 43 44 44 44 45 45 44 44 44 44 44 43 42 42 41 41 41 41 41 40 40 40 40 39 38 38 38 38 38 38 38 37 37 36 36 37 37 37 37 38 39 39
45 45 45 45 45 45 46 46 45 45 44 44 43 42 41 41 41 41 41 40 40 40 40 39 39 39 39 38 38 37 37 37 37 37 36 36 36 37 37 37 38 38 39 39
46 46 46 46 46 45 45 45 45 44 44 43 42 41 41 41 41 41 40 40 39 39 39 39 38 38 38 37 37 36 36 36 35 35 35 35 36 37 37 37 37 37 38 38
46 45 45 45 45 44 44 44 43 42 41 40 40 40 40 40 40 39 39 38 38 38 38 38 38 38 37 36 36 35 34 34 34 34 35 35 36 36 36 36 36 37 37 37
45 45 44 43 43 43 43 42 41 40 39 38 38 38 38 38 38 38 37 36 36 36 36 37 37 36 36 36 35 34 34 33 34 34 34 35 35 35 36 36 36 36 36 36
44 43 43 42 42 42 41 40 40 39 38 38 37 37 37 37 37 37 36 35 35 35 35 34 34 35 35 35 34 34 33 33 34 33 34 34 34 34 34 34 34 34 35 35
43 42 41 41 41 40 39 39 39 38 37 37 36 36 36 36 36 35 35 34 34 34 33 33 33 33 33 33 33 33 33 33 33 33 33 33 33 33 33 33 33 33 34 34
42 41 40 40 39 39 39 39 38 37 37 37 37 36 36 35 35 34 34 33 33 33 33 32 33 33 32 32 32 32 32 32 32 32 32 31 32 32 32 32 32 32 32 32
42 42 41 40 39 39 39 39 38 38 37 37 38 38 37 36 35 34 34 33 33 33 33 33 33 32 32 32 31 32 32 31 31 31 30 30 31 31 31 31 31 32 32 32
43 42 42 41 41 40 40 40 40 39 38 37 37 37 36 36 35 34 33 32 32 32 32 32 32 31 31 31 31 31 31 31 31 30 30 30 29 29 30 30 31 31 31 31
44 43 43 42 43 42 41 40 40 39 38 36 36 36 35 35 34 33 32 32 31 31 30 30 30 30 30 30 30 30 30 30 30 29 29 29 29 29 30 30 30 29 30 30
45 44 44 44 43 43 42 41 40 39 38 36 35 34 34 34 33 33 33 32 31 30 29 29 30 30 30 30 30 29 29 29 29 29 28 29 29 29 29 29 28 28 29 29
46 46 46 45 44 43 43 41 40 38 38 36 35 34 34 34 33 33 32 31 31 30 29 29 29 29 29 29 29 29 28 28 28 28 28 28 28 28 28 28 28 28 28 28
47 47 46 46 45 44 44 42 41 39 38 37 35 35 34 34 33 32 31 31 30 30 29 29 29 28 28 27 27 27 27 26 26 26 26 26 26 27 27 28 28 28 28 28
Wind_Direction
316 315 315 312 308 306 303 299 295 287 277 273 275 275 274 274 273 271 270 268 268 269 271 273 274 273 274 276 277 278 279 280 281 282 282 282 282 282 283 284 286 287 288 289
313 310 308 307 308 307 305 302 298 292 284 277 276 274 274 274 274 273 272 271 271 272 273 274 274 275 276 277 279 280 280 280 281 283 284 284 284 284 285 286 287 288 289 290
309 309 306 302 301 302 303 301 298 295 289 283 282 279 277 277 276 274 273 274 276 276 276 276 275 275 276 278 279 280 280 280 280 282 284 286 285 285 286 287 288 289 289 290
305 303 301 300 296 294 294 294 294 291 287 284 283 281 280 281 280 278 277 277 278 278 277 277 278 278 278 279 280 280 280 281 282 282 284 286 287 288 288 288 288 289 290 291
301 300 298 296 294 291 290 289 289 288 286 284 283 281 280 280 282 283 281 280 280 280 279 279 280 281 281 281 281 281 281 282 283 284 284 285 287 289 290 289 289 290 290 291
298 298 297 295 293 289 288 286 285 284 284 283 282 282 281 281 280 281 282 282 282 282 281 281 281 282 281 282 283 284 284 284 284 285 285 286 288 289 291 291 291 290 291 291
294 294 293 294 292 289 287 286 285 284 283 282 282 282 282 281 281 282 282 282 281 281 281 281 282 282 282 282 284 284 284 284 284 285 287 288 288 290 291 291 291 290 290 291
291 292 292 291 290 288 287 284 283 283 282 282 282 282 282 281 281 281 282 282 282 281 281 281 281 282 283 283 283 284 284 284 285 286 287 288 289 290 290 290 290 291 291 292
289 290 289 288 288 287 287 286 285 285 285 284 284 283 282 281 280 280 280 281 281 281 281 281 281 282 282 282 283 284 284 284 285 286 287 288 289 290 290 290 291 291 291 293
286 287 287 287 287 287 287 287 287 286 285 284 284 283 282 281 279 279 279 279 280 281 281 281 281 281 281 282 283 283 284 284 284 284 286 288 288 289 289 290 291 291 292 292
286 287 286 287 287 287 287 287 287 286 284 283 282 283 283 282 280 279 279 279 279 280 280 280 281 281 281 281 282 282 282 283 283 284 285 287 288 288 289 290 292 292 292 292
286 286 286 286 286 287 287 286 286 285 284 283 283 283 282 282 281 280 279 279 278 278 278 279 279 280 281 281 281 281 282 282 282 284 284 285 287 288 289 290 291 292 292 293
285 284 285 287 287 287 287 287 287 286 285 284 284 283 282 281 281 280 280 279 278 277 277 278 278 279 279 280 280 280 281 281 282 283 284 285 286 287 289 289 290 292 293 294
284 284 285 286 286 287 287 287 287 286 285 285 284 283 282 281 280 280 280 280 279 277 277 277 277 277 278 279 279 280 281 281 281 281 283 285 286 288 288 289 290 292 293 294
284 285 285 285 285 286 287 287 287 286 286 285 284 282 281 280 280 280 280 280 279 278 278 277 277 276 277 278 279 280 280 281 281 282 283 285 286 288 288 289 290 292 293 295
284 285 286 286 286 286 287 287 286 286 286 285 283 281 280 280 280 280 280 280 279 278 278 277 277 276 276 277 278 279 280 280 281 282 284 285 286 288 288 289 290 291 293 296
283 284 285 285 285 285 286 286 286 286 285 285 284 282 280 280 279 279 279 279 278 277 277 276 275 275 275 276 277 278 278 279 281 283 284 285 286 288 289 290 291 292 294 296
283 284 284 284 284 285 285 286 285 285 284 284 284 282 281 280 280 279 279 278 277 276 275 275 275 275 274 275 276 277 277 279 281 283 284 285 286 287 289 291 292 293 295 296
283 284 284 284 285 286 285 285 284 283 283 283 283 282 282 281 280 279 278 277 277 276 274 274 274 274 274 275 275 276 278 279 281 283 284 285 287 288 290 291 293 294 295 296
283 284 284 285 285 285 285 284 284 283 283 282 283 282 282 281 280 279 278 277 276 275 274 273 273 275 276 276 275 277 278 280 282 283 285 285 287 289 290 292 294 295 296 296
283 283 284 284 284 284 284 284 283 283 282 281 281 281 281 280 280 279 277 276 276 275 275 274 275 276 277 277 277 278 279 281 283 285 286 287 289 289 290 291 293 295 296 297
282 282 282 281 281 282 283 283 283 282 281 281 281 281 281 280 279 278 277 276 275 275 274 274 275 276 276 278 279 279 280 281 282 284 286 288 290 291 291 292 293 295 297 298
279 280 280 280 279 279 280 281 282 282 282 282 281 280 279 279 279 278 276 275 274 274 274 274 274 275 275 276 278 279 280 280 281 282 284 287 289 290 292 293 295 296 297 298
277 277 277 278 279 279 278 279 281 281 281 280 280 279 279 278 277 277 276 275 274 273 273 273 273 273 274 276 278 279 279 280 280 281 283 285 288 290 292 293 295 296 297 298
276 276 276 277 277 277 277 277 278 278 278 279 278 278 278 278 278 278 277 275 274 274 273 272 272 272 274 275 276 278 279 279 279 280 282 284 287 290 292 293 294 295 297 298
277 277 277 276 275 275 275 276 276 276 276 276 276 277 278 279 279 278 277 275 273 273 273 272 272 273 274 275 276 277 279 279 280 281 283 285 287 290 291 293 294 295 297 298
276 276 275 274 273 273 273 274 275 275 275 274 274 275 276 277 278 277 276 274 273 272 272 272 272 274 275 276 276 277 278 279 280 282 283 285 288 291 292 293 294 296 297 300
Height
5700 5698 5697 5695 5694 5692 5690 5689 5688 5688 5686 5685 5682 5682 5681 5681 5680 5679 5679 5678 5677 5677 5676 5675 5674 5672 5671 5670 5669 5667 5666 5664 5663 5661 5659 5657 5655 5654 5652 5650 5648 5645 5643 5640
5698 5695 5694 5692 5691 5689 5687 5686 5684 5683 5682 5680 5678 5677 5676 5676 5675 5674 5673 5672 5671 5670 5669 5668 5667 5666 5664 5663 5662 5660 5658 5657 5655 5653 5651 5649 5647 5645 5643 5641 5639 5637 5634 5631
5695 5692 5691 5689 5688 5686 5684 5682 5681 5679 5678 5675 5674 5672 5671 5670 5669 5668 5667 5666 5665 5664 5662 5661 5660 5659 5657 5656 5654 5652 5651 5649 5647 5645 5643 5641 5639 5637 5635 5632 5630 5627 5624 5621
5690 5689 5687 5688 5683 5681 5679 5678 5676 5674 5673 5671 5669 5668 5666 5665 5664 5663 5661 5660 5658 5657 5656 5654 5653 5651 5650 5648 5647 5645 5643 5641 5639 5637 5635 5633 5631 5628 5626 5623 5621 5618 5615 5611
5685 5683 5682 5681 5679 5676 5674 5673 5671 5669 5667 5666 5664 5662 5661 5660 5658 5656 5655 5653 5652 5650 5649 5647 5646 5644 5642 5641 5639 5637 5635 5633 5631 5629 5626 5624 5622 5619 5617 5614 5611 5608 5605 5602
5678 5676 5675 5676 5673 5670 5669 5667 5665 5663 5661 5660 5658 5657 5656 5654 5652 5650 5648 5646 5645 5643 5641 5640 5638 5636 5634 5633 5631 5628 5626 5624 5622 5620 5617 5615 5613 5610 5607 5605 5601 5598 5595 5591
5671 5669 5668 5668 5665 5663 5663 5661 5658 5655 5654 5652 5651 5650 5649 5646 5644 5643 5641 5639 5637 5635 5633 5631 5630 5628 5626 5624 5622 5619 5617 5615 5613 5610 5608 5606 5603 5600 5598 5595 5591 5588 5585 5581
5663 5661 5662 5658 5656 5655 5654 5651 5649 5647 5645 5644 5643 5641 5640 5638 5636 5634 5632 5630 5628 5626 5624 5622 5620 5619 5617 5615 5613 5610 5608 5606 5603 5601 5598 5596 5593 5590 5587 5584 5581 5577 5574 5570
5655 5655 5651 5648 5646 5644 5643 5641 5639 5637 5636 5634 5633 5631 5630 5628 5626 5624 5622 5620 5618 5616 5615 5613 5610 5609 5607 5605 5602 5600 5598 5596 5594 5591 5588 5586 5583 5580 5577 5574 5570 5567 5563 5560
5644 5644 5641 5638 5636 5634 5632 5630 5629 5627 5625 5623 5621 5620 5618 5616 5615 5613 5611 5610 5608 5606 5604 5602 5600 5598 5596 5594 5592 5590 5588 5585 5583 5580 5578 5575 5572 5569 5566 5563 5560 5556 5553 5549
5632 5632 5630 5628 5625 5623 5621 5619 5617 5616 5613 5611 5609 5608 5606 5604 5603 5601 5600 5598 5596 5594 5593 5591 5589 5587 5584 5582 5580 5578 5576 5574 5572 5569 5567 5564 5561 5558 5555 5553 5549 5546 5543 5539
5621 5620 5617 5617 5614 5612 5609 5607 5605 5603 5601 5599 5597 5595 5593 5592 5590 5588 5587 5585 5583 5581 5580 5578 5576 5575 5573 5571 5569 5567 5565 5562 5560 5558 5555 5553 5550 5548 5544 5542 5539 5535 5532 5528
5608 5606 5604 5603 5601 5598 5596 5594 5592 5590 5588 5586 5584 5581 5579 5578 5576 5575 5573 5571 5570 5568 5567 5565 5564 5562 5560 5559 5557 5555 5553 5551 5548 5546 5544 5541 5539 5537 5534 5531 5528 5525 5521 5518
5594 5593 5592 5590 5588 5585 5582 5580 5578 5576 5573 5571 5569 5567 5565 5564 5562 5561 5559 5558 5556 5555 5554 5552 5551 5550 5548 5546 5544 5543 5541 5539 5537 5535 5533 5530 5528 5525 5523 5520 5517 5514 5510 5506
5581 5579 5578 5576 5574 5571 5568 5566 5564 5562 5559 5557 5555 5553 5552 5550 5549 5548 5546 5545 5543 5542 5541 5540 5538 5537 5535 5534 5532 5531 5529 5527 5525 5523 5521 5519 5517 5514 5512 5509 5506 5502 5499 5495
5567 5565 5563 5561 5559 5557 5555 5552 5550 5548 5545 5543 5541 5540 5538 5537 5535 5534 5533 5532 5531 5530 5528 5527 5526 5524 5523 5522 5520 5519 5517 5515 5514 5512 5510 5508 5505 5503 5500 5497 5494 5491 5488 5484
5553 5551 5549 5547 5545 5543 5541 5538 5536 5534 5532 5530 5528 5526 5525 5524 5522 5521 5520 5519 5518 5517 5515 5514 5513 5512 5511 5510 5508 5507 5505 5504 5502 5500 5498 5496 5494 5492 5489 5486 5483 5480 5476 5473
5538 5537 5535 5533 5531 5529 5527 5525 5523 5520 5519 5517 5515 5514 5512 5511 5510 5508 5507 5506 5505 5504 5503 5502 5501 5500 5499 5498 5497 5495 5494 5493 5491 5489 5487 5485 5483 5480 5478 5475 5472 5469 5466 5462
5524 5523 5521 5519 5518 5516 5514 5512 5510 5508 5506 5504 5503 5501 5500 5498 5497 5496 5495 5494 5493 5491 5491 5490 5489 5488 5487 5486 5485 5484 5483 5482 5480 5478 5476 5474 5472 5470 5467 5464 5461 5458 5455 5451
5511 5509 5508 5506 5504 5502 5501 5499 5497 5495 5494 5492 5490 5489 5487 5486 5485 5484 5483 5482 5480 5479 5479 5478 5477 5477 5476 5475 5474 5473 5472 5470 5469 5467 5465 5463 5461 5459 5456 5454 5451 5448 5445 5441
5497 5496 5494 5493 5491 5489 5487 5486 5484 5483 5481 5480 5478 5477 5475 5474 5473 5472 5471 5470 5469 5468 5467 5467 5466 5466 5465 5464 5463 5462 5461 5460 5458 5457 5455 5453 5451 5448 5446 5444 5441 5438 5435 5431
5483 5482 5481 5479 5478 5477 5475 5473 5472 5470 5469 5467 5466 5465 5463 5462 5461 5460 5459 5458 5458 5457 5456 5456 5455 5454 5454 5453 5452 5451 5450 5449 5448 5446 5445 5443 5441 5438 5436 5434 5431 5428 5425 5422
5469 5468 5466 5465 5464 5463 5462 5460 5459 5457 5456 5455 5454 5452 5451 5450 5449 5449 5448 5447 5446 5445 5445 5444 5444 5443 5443 5442 5441 5441 5440 5439 5437 5436 5434 5433 5431 5429 5427 5424 5421 5418 5415 5412
5454 5453 5452 5451 5450 5449 5449 5447 5446 5445 5444 5443 5441 5440 5439 5439 5438 5437 5436 5436 5435 5434 5434 5433 5433 5432 5432 5431 5431 5430 5429 5428 5427 5426 5424 5423 5421 5419 5417 5414 5412 5409 5406 5403
5439 5438 5438 5437 5436 5435 5434 5434 5433 5432 5431 5430 5429 5428 5427 5426 5426 5425 5424 5424 5423 5423 5423 5422 5422 5422 5421 5421 5420 5419 5419 5418 5417 5416 5415 5413 5412 5410 5408 5405 5402 5400 5397 5394
5424 5423 5422 5422 5421 5420 5420 5419 5419 5419 5418 5418 5417 5416 5415 5414 5413 5413 5413 5412 5412 5412 5412 5412 5411 5411 5411 5410 5410 5409 5408 5408 5407 5406 5405 5404 5402 5400 5398 5396 5394 5391 5388 5385
5408 5407 5406 5406 5406 5405 5404 5404 5404 5405 5404 5404 5404 5404 5403 5402 5402 5401 5401 5401 5401 5401 5401 5401 5401 5401 5401 5400 5400 5399 5399 5398 5398 5397 5396 5395 5393 5391 5389 5387 5385 5382 5380 5377